Location: Umburanas
(4.5000°S, 37.9667°W)
Time: 05:41:28
(UTC+00:00)

DNEPR-1 R/B - Pass Details

Date: 19 November 2019
Orbit: 556 x 1366 km, 64.6° (Epoch: 05 December)

Event Time Altitude Azimuth Distance (km) Brightness Sun altitude
Rises 21:33:09 0° 340° (NNW) 3,679 7.5 -16.2°
Reaches altitude 10° 21:35:57 10° 341° (NNW) 2,602 6.7 -16.9°
Maximum altitude 21:41:54 82° 67° (ENE) 788 3.9 -18.2°
Drops below altitude 10° 21:46:42 10° 155° (SSE) 2,121 6.3 -19.3°
Sets 21:48:49 0° 156° (SSE) 2,954 7.0 -19.8°
